Date String (YYYY-MM-DD hh:mm:ss) UTC,Instrument flags,Ambient pressure (hPa),Sample flow (lpm),Bypass flow (lpm),Sample temperature (°C),Ambient temperature (°C),ASC tube jacket temperature (°C),LED temperature (°C),Box temperature (°C),Sample RH (%),Span deviation,Mass concentration (μg/m³),Mass concentration (μg/m³),Mass concentration (μg/m³)
DateTimeUTC,F1_M11,P_M11,Q1_M11,Q2_M11,T1_M11,T2_M11,T3_M11,T4_M11,T5_M11,U1_M11,ZSPAN_M11,X0_M11,X2_M11,X1_M11
2022-12-10 00:00:00,,0821.1,5.03,0.00,22.6,20.9,00.0,31.6,24.2,08.6,0000.0,0003.31,0001.06,0000.81
2022-12-10 00:01:00,,0821.1,4.99,0.00,22.6,20.9,00.0,31.6,24.3,08.6,0000.0,0003.34,0001.06,0000.80
2022-12-10 00:02:00,,0821.2,4.98,0.00,22.5,20.9,00.0,31.6,24.3,08.5,0000.0,0002.15,0001.05,0000.79
2022-12-10 00:03:00,,0821.2,5.00,0.00,22.5,20.9,00.0,31.5,24.2,08.5,0000.0,0001.60,0001.03,0000.78
2022-12-10 00:04:00,,0821.3,5.02,0.00,22.5,20.8,00.0,31.5,24.2,08.5,0000.0,0001.99,0001.03,0000.78
2022-12-10 00:05:00,,0821.2,4.99,0.00,22.5,20.8,00.0,31.5,24.2,08.5,0000.0,0002.64,0001.01,0000.77
2022-12-10 00:06:00,,0821.3,4.98,0.00,22.5,20.8,00.0,31.5,24.2,08.5,0000.0,0002.62,0000.98,0000.77
2022-12-10 00:07:00,,0821.3,4.99,0.00,22.4,20.8,00.0,31.5,24.2,08.5,0000.0,0002.68,0000.98,0000.77
2022-12-10 00:08:00,,0821.3,5.02,0.00,22.4,20.8,00.0,31.5,24.1,08.5,0000.0,0002.65,0000.98,0000.78
2022-12-10 00:09:00,,0821.4,5.00,0.00,22.4,20.8,00.0,31.4,24.1,08.5,0000.0,0002.67,0000.99,0000.77
2022-12-10 00:10:00,,0821.4,4.98,0.00,22.4,20.8,00.0,31.4,24.1,08.5,0000.0,0002.73,0001.01,0000.77
2022-12-10 00:11:00,,0821.5,4.99,0.00,22.4,20.8,00.0,31.4,24.1,08.5,0000.0,0002.71,0001.00,0000.77
2022-12-10 00:12:00,,0821.4,5.01,0.00,22.3,20.7,00.0,31.4,24.0,08.5,0000.0,0002.70,0001.01,0000.79
2022-12-10 00:13:00,,0821.5,5.02,0.00,22.3,20.7,00.0,31.4,24.0,08.5,0000.0,0002.76,0001.03,0000.80
2022-12-10 00:14:00,,0821.6,4.99,0.00,22.3,20.7,00.0,31.3,24.0,08.5,0000.0,0002.89,0001.09,0000.82
2022-12-10 00:15:00,,0821.7,4.99,0.00,22.3,20.7,00.0,31.3,23.9,08.5,0000.0,0002.88,0001.16,0000.85
2022-12-10 00:16:00,,0821.7,4.98,0.00,22.3,20.7,00.0,31.3,23.9,08.6,0000.0,0002.17,0001.20,0000.86
2022-12-10 00:17:00,,0821.7,5.01,0.00,22.3,20.8,00.0,31.3,23.9,08.6,0000.0,0002.23,0001.22,0000.87
2022-12-10 00:18:00,,0821.7,5.02,0.00,22.3,20.8,00.0,31.3,24.0,08.5,0000.0,0002.16,0001.22,0000.87
2022-12-10 00:19:00,,0821.7,4.99,0.00,22.3,20.7,00.0,31.3,24.0,08.5,0000.0,0002.17,0001.24,0000.87
2022-12-10 00:20:00,,0821.8,4.99,0.00,22.2,20.7,00.0,31.3,24.0,08.4,0000.0,0002.53,0001.24,0000.87
2022-12-10 00:21:00,,0821.8,4.99,0.00,22.2,20.7,00.0,31.2,23.9,08.5,0000.0,0002.99,0001.23,0000.88
2022-12-10 00:22:00,,0821.7,5.01,0.00,22.2,20.7,00.0,31.2,23.9,08.6,0000.0,0003.09,0001.24,0000.87
2022-12-10 00:23:00,,0821.8,5.02,0.00,22.2,20.6,00.0,31.2,23.9,08.5,0000.0,0003.20,0001.28,0000.86
2022-12-10 00:24:00,,0821.7,4.99,0.00,22.2,20.6,00.0,31.2,23.9,08.5,0000.0,0003.20,0001.28,0000.85
2022-12-10 00:25:00,,0821.8,4.98,0.00,22.2,20.6,00.0,31.2,23.9,08.5,0000.0,0003.15,0001.25,0000.83
2022-12-10 00:26:00,,0821.8,5.00,0.00,22.2,20.6,00.0,31.2,23.9,08.5,0000.0,0003.14,0001.23,0000.81
2022-12-10 00:27:00,,0821.8,5.02,0.00,22.1,20.6,00.0,31.1,23.9,08.5,0000.0,0002.97,0001.16,0000.80
2022-12-10 00:28:00,,0821.8,5.01,0.00,22.1,20.7,00.0,31.1,23.9,08.5,0000.0,0002.85,0001.13,0000.80
2022-12-10 00:29:00,,0821.8,4.98,0.00,22.1,20.6,00.0,31.1,23.9,08.5,0000.0,0002.82,0001.11,0000.79
2022-12-10 00:30:00,,0822.0,4.98,0.00,22.1,20.4,00.0,31.1,23.9,08.4,0000.0,0002.83,0001.11,0000.80
2022-12-10 00:31:00,,0821.8,5.01,0.00,22.1,20.4,00.0,31.1,23.8,08.4,0000.0,0002.60,0001.11,0000.79
2022-12-10 00:32:00,,0821.9,5.02,0.00,22.1,20.4,00.0,31.1,23.8,08.4,0000.0,0001.98,0001.09,0000.79
2022-12-10 00:33:00,,0822.1,4.98,0.00,22.0,20.4,00.0,31.0,23.8,08.5,0000.0,0001.88,0001.08,0000.79
2022-12-10 00:34:00,,0822.1,4.99,0.00,22.0,20.4,00.0,31.0,23.8,08.5,0000.0,0001.84,0001.06,0000.78
2022-12-10 00:35:00,,0822.1,5.01,0.00,22.0,20.4,00.0,31.0,23.8,08.5,0000.0,0001.76,0001.03,0000.77
2022-12-10 00:36:00,,0822.1,5.02,0.00,22.0,20.5,00.0,31.0,23.8,08.5,0000.0,0001.83,0001.07,0000.77
2022-12-10 00:37:00,,0822.0,4.99,0.00,22.0,20.4,00.0,31.0,23.8,08.5,0000.0,0001.69,0001.04,0000.78
2022-12-10 00:38:00,,0821.9,4.99,0.00,22.0,20.4,00.0,31.0,23.8,08.6,0000.0,0001.56,0001.03,0000.78
2022-12-10 00:39:00,,0822.1,4.99,0.00,22.0,20.4,00.0,31.0,23.8,08.6,0000.0,0001.59,0001.04,0000.77
2022-12-10 00:40:00,,0822.1,5.01,0.00,22.0,20.3,00.0,31.0,23.8,08.5,0000.0,0001.63,0001.07,0000.78
2022-12-10 00:41:00,,0822.0,5.02,0.00,22.0,20.4,00.0,30.9,23.8,08.6,0000.0,0002.23,0001.07,0000.77
2022-12-10 00:42:00,,0822.0,5.00,0.00,22.0,20.5,00.0,30.9,23.8,08.6,0000.0,0002.53,0001.09,0000.78
2022-12-10 00:43:00,,0822.0,4.99,0.00,22.0,20.6,00.0,30.9,23.8,08.7,0000.0,0002.62,0001.11,0000.78
2022-12-10 00:44:00,,0822.0,4.99,0.00,22.0,20.7,00.0,30.9,23.9,08.7,0000.0,0002.66,0001.12,0000.78
2022-12-10 00:45:00,,0822.1,5.01,0.00,22.1,20.7,00.0,30.9,24.0,08.6,0000.0,0002.70,0001.13,0000.79
2022-12-10 00:46:00,,0822.0,5.02,0.00,22.1,20.7,00.0,30.9,24.0,08.7,0000.0,0002.84,0001.19,0000.80
2022-12-10 00:47:00,,0821.9,4.99,0.00,22.1,20.8,00.0,30.9,24.0,08.7,0000.0,0002.82,0001.17,0000.80
2022-12-10 00:48:00,,0821.9,4.99,0.00,22.1,20.9,00.0,30.9,24.0,08.7,0000.0,0002.85,0001.17,0000.79
2022-12-10 00:49:00,,0822.0,4.99,0.00,22.1,20.9,00.0,30.9,24.1,08.7,0000.0,0002.92,0001.21,0000.79
2022-12-10 00:50:00,,0822.0,5.02,0.00,22.2,21.0,00.0,31.0,24.1,08.6,0000.0,0002.90,0001.20,0000.80
2022-12-10 00:51:00,,0822.1,5.02,0.00,22.2,21.0,00.0,31.0,24.1,08.6,0000.0,0003.01,0001.20,0000.80
2022-12-10 00:52:00,,0822.0,4.99,0.00,22.2,21.0,00.0,31.0,24.1,08.6,0000.0,0002.65,0001.21,0000.79
2022-12-10 00:53:00,,0822.1,4.99,0.00,22.2,21.1,00.0,31.0,24.1,08.6,0000.0,0002.26,0001.19,0000.79
2022-12-10 00:54:00,,0822.1,4.99,0.00,22.2,21.1,00.0,31.0,24.2,08.7,0000.0,0002.22,0001.17,0000.80
2022-12-10 00:55:00,,0822.1,5.00,0.00,22.3,21.1,00.0,31.0,24.2,08.7,0000.0,0002.22,0001.18,0000.80
2022-12-10 00:56:00,,0822.1,5.02,0.00,22.3,21.1,00.0,31.0,24.2,08.8,0000.0,0002.34,0001.22,0000.80
2022-12-10 00:57:00,,0822.2,5.00,0.00,22.3,21.2,00.0,31.0,24.2,08.9,0000.0,0002.21,0001.18,0000.80
2022-12-10 00:58:00,,0822.1,4.98,0.00,22.3,21.1,00.0,31.0,24.2,08.9,0000.0,0002.22,0001.18,0000.82
2022-12-10 00:59:00,,0822.1,4.99,0.00,22.3,21.1,00.0,31.1,24.2,09.0,0000.0,0002.20,0001.18,0000.83
